Theta_e
299 301 304 305 306 307 306 305 303 302 301 299 298 297 296 295 295 294 293 291 289 288 288 288 287 287 287 287 287 287 286 285 284 284 285 286 284 285 287 286 287 287 288
295 295 297 297 298 298 297 296 298 295 295 294 293 291 291 290 290 288 287 287 287 286 286 285 285 287 285 285 285 285 284 285 285 282 284 284 285 285 284 283 286 287 286
293 293 292 293 294 293 293 292 293 291 291 290 290 288 287 286 286 286 286 285 285 284 284 284 284 284 282 282 282 283 284 285 284 283 283 284 283 283 283 283 283 283 285
291 290 290 289 291 291 290 290 289 289 288 287 286 285 285 285 285 284 284 284 283 283 284 284 283 283 282 282 283 282 284 283 284 283 282 283 283 284 284 282 282 283 285
289 288 287 286 287 287 286 286 286 285 284 284 284 284 285 285 285 284 284 283 283 282 283 283 283 282 285 286 284 283 284 283 282 282 281 282 282 282 281 283 281 283 284
287 286 286 285 285 284 284 284 284 283 283 283 283 283 284 285 290 288 285 283 283 283 282 282 282 281 283 286 286 286 286 283 282 282 282 281 282 282 283 282 283 280 278
285 284 284 284 284 283 283 283 283 282 282 282 282 282 283 285 289 288 286 283 283 282 282 282 282 283 281 282 284 286 285 287 286 283 281 282 282 283 284 282 281 280 280
284 284 283 283 283 282 282 281 281 281 281 280 280 281 282 285 288 287 285 283 283 282 282 282 282 282 282 282 284 284 283 284 284 283 284 284 285 284 283 283 282 280 281
283 283 283 283 282 281 280 280 280 280 279 278 279 277 278 278 288 287 285 282 283 282 283 282 281 281 284 287 284 282 280 283 286 288 288 288 287 286 285 283 279 278 276
283 283 282 282 281 280 280 279 278 277 279 279 278 276 276 276 286 287 284 282 278 280 281 282 283 281 286 286 284 283 281 281 281 284 280 282 283 282 285 283 282 278 277
281 281 280 279 279 279 277 276 276 276 276 274 275 274 275 277 280 285 286 282 281 280 280 279 280 284 285 286 286 281 282 284 282 280 277 275 276 277 279 280 281 280 278
280 279 278 277 278 277 276 273 273 274 273 272 273 274 275 275 280 283 284 284 284 275 276 278 279 284 284 284 281 284 284 284 282 280 273 271 276 276 277 278 279 280 280
278 276 275 275 275 274 273 273 273 273 273 273 275 274 273 274 274 281 282 283 283 277 278 280 282 282 281 277 279 279 274 275 275 272 274 277 278 278 276 275 272 270 273
276 274 273 274 272 272 274 274 274 273 273 274 273 272 271 271 272 272 273 271 277 276 278 271 275 275 275 274 270 271 271 270 269 270 273 274 274 271 271 273 271 273 264
275 273 273 273 272 272 273 273 273 273 276 273 272 272 270 268 271 278 276 268 270 275 263 259 260 262 262 264 263 264 266 265 266 267 268 270 270 271 271 271 270 265 263
273 273 272 272 271 272 272 270 276 277 279 279 279 275 272 277 281 280 280 280 279 277 258 255 257 260 261 262 260 261 263 262 264 265 266 266 267 268 268 269 270 269 270
274 273 273 272 271 270 271 271 269 270 276 280 281 280 280 278 279 279 278 277 274 268 254 252 255 256 257 259 259 259 259 262 260 261 261 263 264 265 266 266 268 268 269
270 274 273 271 271 271 269 269 268 268 267 264 272 275 277 279 277 278 276 268 256 255 250 251 252 252 254 255 255 255 256 257 257 258 258 258 258 262 263 264 265 266 267
271 267 268 269 268 267 266 264 263 258 258 256 255 265 264 274 276 274 273 254 254 251 249 249 249 250 251 252 252 251 251 252 254 252 253 253 254 258 260 261 263 265 266
268 267 266 267 263 262 261 262 261 260 258 255 255 257 253 256 256 254 249 249 249 249 249 249 250 249 250 249 249 249 250 250 250 250 251 251 252 254 259 260 261 262 264
265 265 266 262 262 263 263 263 263 261 260 258 259 253 265 257 257 254 251 248 250 251 251 251 251 250 249 249 248 248 248 251 249 249 250 250 250 251 253 258 259 260 262
264 264 264 264 264 262 262 263 264 262 262 259 258 251 271 261 256 253 251 251 252 252 252 252 252 252 253 252 252 251 250 251 249 248 250 250 250 251 252 253 254 258 260
264 262 262 262 263 263 262 260 261 259 260 257 256 256 252 252 252 251 252 253 251 250 251 249 253 257 255 252 251 252 252 253 253 250 250 249 249 251 249 252 253 254 256
261 262 263 263 262 261 261 259 259 258 256 256 256 256 254 252 252 253 253 253 252 254 255 255 255 256 257 255 251 250 251 252 249 252 251 250 251 250 250 251 255 254 254
259 260 261 260 259 260 259 260 258 255 255 257 256 255 256 255 254 255 257 257 257 257 258 258 256 256 255 255 254 251 251 257 254 252 249 248 251 249 250 250 254 255 253
259 260 260 260 260 261 260 258 258 259 257 257 258 258 258 258 258 259 260 260 259 258 258 257 257 255 253 253 253 254 254 258 256 255 253 250 251 252 253 254 253 254 256
Wind_Speed
3 3 3 4 5 7 7 7 8 8 8 7 7 8 7 7 7 8 7 7 8 7 5 6 7 5 4 4 4 4 3 2 4 4 3 6 5 7 7 5 6 7 8
4 5 5 5 7 8 7 6 5 10 8 8 8 9 8 7 7 8 8 6 7 7 6 6 6 4 5 4 3 4 3 2 5 10 9 6 8 9 8 8 7 7 7
5 6 6 5 7 8 7 7 6 10 9 8 8 9 8 7 7 7 7 7 7 6 6 6 5 5 4 2 3 3 2 3 3 5 8 7 5 6 9 7 8 8 6
5 6 6 6 7 8 7 7 9 8 11 8 7 7 7 7 6 6 7 7 7 5 5 5 5 5 5 5 4 5 4 6 7 7 9 9 10 10 9 13 14 8 11
6 6 5 6 7 8 8 8 8 8 8 7 8 6 6 6 4 6 6 6 6 6 5 6 6 6 8 6 3 3 4 4 6 7 9 9 11 11 13 10 12 13 11
6 6 6 7 7 7 8 8 9 8 7 7 6 7 7 4 11 10 7 5 6 6 6 5 3 3 2 4 7 8 7 5 5 5 6 8 10 10 9 10 9 13 12
7 6 7 7 8 7 7 7 8 7 6 6 6 6 6 5 10 10 9 5 5 5 4 4 2 0 0 1 4 7 7 9 11 6 7 8 10 10 10 13 12 11 12
8 7 7 8 8 7 6 6 6 5 6 5 5 5 5 4 10 9 8 5 4 4 3 2 1 2 3 3 3 3 5 5 5 4 6 7 7 10 10 10 12 12 10
9 8 7 8 9 7 6 6 4 6 5 4 4 5 5 2 9 8 5 3 2 1 1 2 2 2 7 10 4 5 5 6 6 13 12 11 16 19 16 9 8 10 11
9 9 7 7 7 7 6 6 3 3 5 5 5 4 4 3 4 5 5 2 2 0 1 3 7 4 8 9 5 6 8 10 7 6 4 6 8 9 16 8 7 10 10
8 8 7 6 7 6 6 3 4 5 6 5 5 3 4 3 3 6 5 2 2 2 1 0 2 8 9 11 12 4 8 11 9 4 3 3 3 4 5 4 5 7 9
9 8 7 6 6 5 7 4 3 5 5 4 5 3 1 1 4 5 3 2 1 3 2 2 3 9 10 11 8 13 16 14 6 5 4 3 5 4 4 5 7 7 6
10 9 7 6 5 5 6 6 4 4 4 5 4 3 1 0 0 1 0 1 2 1 1 4 7 7 7 6 12 13 8 5 6 4 6 8 7 6 6 6 4 5 6
11 9 7 8 7 5 4 5 6 5 4 4 4 3 2 1 1 2 2 2 3 2 2 3 3 4 7 7 4 7 5 4 4 5 6 7 6 3 5 4 6 7 3
8 7 7 5 6 5 3 3 3 1 3 5 4 5 5 3 4 6 3 2 3 3 3 3 3 3 3 3 3 4 3 2 4 5 5 7 7 7 6 6 5 3 2
9 7 6 6 4 4 5 2 2 6 10 9 10 7 3 5 8 5 5 3 2 3 4 1 1 0 1 1 1 2 3 3 3 5 4 5 6 7 7 7 6 5 6
9 8 6 6 6 6 5 5 6 2 5 10 10 10 9 7 7 6 4 0 2 4 3 2 2 2 1 2 2 2 2 2 3 3 3 5 6 6 7 7 7 7 7
5 7 6 6 5 5 5 5 3 6 5 2 6 7 9 8 7 7 4 5 1 3 1 3 3 2 2 2 2 1 2 2 2 2 2 2 3 5 6 6 7 8 8
4 3 3 3 3 4 4 3 2 2 3 3 1 3 2 7 8 5 5 3 3 3 3 2 3 3 3 3 3 2 2 3 3 2 3 2 2 3 5 5 6 10 10
4 6 6 5 4 3 3 5 4 5 4 3 3 3 1 3 1 2 1 2 3 3 3 3 3 3 4 3 3 3 3 3 3 2 3 3 3 2 4 5 4 7 7
4 3 6 3 5 6 5 6 5 5 5 5 5 4 9 4 4 4 4 4 4 4 4 4 3 4 4 3 3 3 3 4 3 3 2 3 2 3 2 4 5 5 6
5 6 6 7 5 5 6 5 6 6 6 6 4 3 14 3 4 4 4 5 5 5 4 4 4 4 4 4 4 4 5 5 3 3 4 3 2 3 3 3 4 4 5
6 6 6 5 6 6 6 5 6 6 5 5 4 4 3 3 4 4 5 5 4 4 4 4 5 5 4 5 5 5 5 5 5 4 4 3 2 3 3 4 3 3 3
4 7 8 7 7 7 6 6 6 6 5 4 5 5 5 4 5 6 5 4 4 5 5 5 6 7 6 5 5 5 5 5 4 5 7 5 4 4 3 4 5 5 4
7 7 6 5 5 6 4 5 5 4 4 5 5 4 4 5 4 5 6 5 5 5 7 6 5 7 9 10 8 8 7 10 6 6 4 5 6 6 5 4 6 5 5
5 6 6 5 6 6 6 6 6 6 6 5 5 5 5 6 6 6 6 6 6 6 7 5 6 9 9 8 9 10 9 12 10 10 6 5 6 6 5 7 8 5 7
Wind_Direction
120 110 120 108 109 105 107 105 112 103 93 89 93 90 84 86 79 84 79 82 89 87 62 74 66 52 53 46 42 43 41 34 288 292 339 331 329 311 316 298 295 298 308
92 93 79 80 90 95 93 91 116 105 92 98 93 91 87 84 82 94 95 86 86 78 71 71 61 55 56 48 53 48 36 357 331 313 318 321 319 318 312 309 311 313 305
114 112 102 94 97 100 103 97 104 101 98 91 96 97 96 91 95 84 93 91 87 83 80 82 77 80 76 62 67 54 20 342 311 303 308 320 313 317 323 317 322 309 303
121 111 111 112 110 108 107 99 95 103 104 102 94 97 96 95 90 98 95 90 88 86 88 95 91 80 71 38 34 23 2 347 343 333 324 326 332 333 328 329 327 323 319
116 115 118 105 95 97 95 96 99 94 96 99 104 94 94 90 97 98 98 111 124 114 89 76 74 69 56 40 27 0 347 349 342 333 326 323 330 334 335 327 312 316 326
133 134 123 117 109 105 110 113 105 102 99 103 104 104 92 97 109 120 127 110 93 88 85 84 104 112 54 19 13 1 347 339 308 317 319 319 321 319 312 312 318 324 323
131 134 131 129 118 116 119 117 116 113 116 109 106 110 113 110 109 101 97 101 108 119 122 110 105 141 317 279 304 324 311 326 328 305 299 303 310 318 317 319 320 317 313
144 148 141 131 125 128 127 124 118 119 120 117 108 103 103 116 119 116 117 112 116 126 136 144 155 295 290 294 291 294 263 279 263 257 254 282 298 318 311 309 311 304 298
159 159 149 142 142 142 136 129 110 116 109 101 111 116 124 71 127 125 117 95 96 100 78 72 26 319 320 324 314 303 307 301 300 293 288 301 316 319 313 317 316 316 317
164 159 146 137 140 138 134 128 115 117 125 125 119 114 116 114 118 115 126 133 105 321 352 21 347 333 331 323 318 312 316 311 291 278 260 282 302 302 306 297 304 312 312
132 128 127 127 131 131 119 101 132 127 114 103 106 93 106 128 149 141 139 144 176 174 197 296 295 314 319 327 327 330 309 311 307 286 275 288 279 274 283 275 279 292 302
129 127 126 123 126 132 131 113 109 117 112 113 123 122 133 167 161 142 137 124 45 117 262 290 276 303 330 340 341 335 337 327 317 320 307 289 295 304 287 285 286 286 282
134 135 138 130 126 128 135 134 124 126 138 154 162 157 185 212 287 198 262 237 275 220 239 270 343 339 359 11 2 2 359 348 340 328 313 311 314 301 292 299 280 289 266
143 148 145 144 140 139 140 155 154 159 157 157 159 171 186 201 263 290 275 315 307 343 12 347 356 39 33 39 6 1 357 355 329 321 320 319 309 322 305 306 312 316 304
139 143 152 150 156 143 119 146 140 123 170 163 189 174 167 190 227 210 184 207 218 247 114 35 19 9 12 1 2 339 324 327 355 338 328 327 325 321 325 324 308 301 235
149 161 166 157 156 146 144 113 187 191 198 197 188 179 203 204 210 203 235 237 347 339 57 92 266 35 46 342 328 305 302 347 338 332 330 320 323 327 327 326 314 309 311
167 162 159 159 161 161 164 174 174 253 254 213 205 204 205 203 209 225 217 38 56 72 116 211 202 198 240 280 278 253 273 311 313 301 308 315 326 325 332 329 327 322 321
125 157 166 165 168 173 183 191 171 179 191 219 253 208 230 205 219 222 207 85 38 18 140 193 220 221 238 234 268 257 296 291 284 279 295 294 311 331 330 329 328 319 323
154 147 140 150 154 163 160 149 167 158 207 207 307 244 329 212 226 198 170 148 188 213 205 217 220 224 241 243 252 269 247 272 272 293 297 300 306 325 319 312 315 316 322
178 172 174 175 162 177 159 181 183 199 200 202 208 218 256 74 150 240 245 177 181 221 212 216 236 234 239 236 253 250 274 281 292 289 290 302 299 300 313 313 315 320 322
167 155 182 162 178 189 189 203 203 199 205 205 216 208 202 175 199 207 206 217 215 222 224 218 232 232 231 234 230 238 238 260 252 257 267 274 289 304 268 291 300 304 311
179 183 187 196 180 190 204 203 209 207 207 208 206 235 233 183 192 210 215 216 220 219 215 206 227 222 224 220 221 223 236 242 251 242 259 250 261 271 274 272 286 298 310
186 177 184 197 198 194 196 196 208 214 211 211 196 207 216 205 204 215 225 227 219 227 222 208 236 251 223 224 221 218 225 231 234 208 244 241 243 261 245 262 260 274 287
199 204 207 207 197 207 209 200 205 198 200 203 207 219 218 212 212 228 234 233 222 235 229 224 225 236 257 247 227 223 230 242 216 228 224 222 240 234 245 245 254 255 258
190 199 203 200 199 209 204 204 201 193 203 214 213 215 231 232 229 233 238 226 226 230 240 230 229 236 244 252 250 244 239 253 241 224 217 214 239 232 233 228 253 255 244
216 223 220 203 195 193 196 196 206 203 205 216 217 213 221 230 231 230 231 228 232 235 240 243 241 240 247 248 249 252 247 249 242 235 220 208 227 234 224 234 240 241 253